| time (UTC) | temp F | wind direction | speed MPH | gust MPH | rain 1hr in | rain 24hr in | rain mn in | humidity % | barometer mb |
| 20260508063100 | 37 | 97 | 2.0 | 3.0 | 0.00 | 0.00 | 0.00 | 92 | 1015.5 |
| 20260508061602 | 38 | 0 | 0.0 | 3.0 | 0.00 | 0.00 | 0.00 | 93 | 1015.3 |
| 20260508054626 | 38 | 98 | 2.0 | 4.0 | 0.00 | 0.01 | 0.00 | 91 | 1015.2 |
| 20260508053115 | 38 | 94 | 2.0 | 4.0 | 0.00 | 0.01 | 0.00 | 90 | 1015.3 |
| 20260508051602 | 39 | 0 | 1.0 | 3.0 | 0.00 | 0.01 | 0.00 | 90 | 1015.6 |
| 20260508050100 | 40 | 98 | 2.0 | 4.0 | 0.00 | 0.01 | 0.00 | 91 | 1015.5 |
| 20260508044559 | 40 | 110 | 3.0 | 7.0 | 0.00 | 0.02 | 0.00 | 90 | 1015.3 |
| 20260508043109 | 40 | 105 | 3.0 | 6.0 | 0.00 | 0.02 | 0.00 | 89 | 1015.4 |
| 20260508041602 | 41 | 111 | 3.0 | 4.0 | 0.00 | 0.02 | 0.00 | 87 | 1015.3 |
| 20260508040104 | 41 | 108 | 3.0 | 6.0 | 0.00 | 0.02 | 0.00 | 85 | 1015.0 |
| 20260508034557 | 41 | 107 | 3.0 | 4.0 | 0.00 | 0.03 | 0.02 | 84 | 1014.9 |
| 20260508033058 | 41 | 111 | 2.0 | 4.0 | 0.00 | 0.03 | 0.02 | 83 | 1014.9 |
| 20260508031605 | 42 | 103 | 2.0 | 4.0 | 0.00 | 0.03 | 0.02 | 82 | 1014.6 |
| 20260508030105 | 42 | 104 | 2.0 | 4.0 | 0.00 | 0.03 | 0.02 | 81 | 1014.5 |
| 20260508024603 | 43 | 97 | 2.0 | 4.0 | 0.00 | 0.04 | 0.02 | 79 | 1014.3 |
| 20260508023108 | 44 | 98 | 2.0 | 4.0 | 0.00 | 0.04 | 0.02 | 77 | 1014.3 |
| 20260508021608 | 44 | 92 | 2.0 | 4.0 | 0.00 | 0.04 | 0.02 | 76 | 1014.0 |
| 20260508020057 | 45 | 98 | 1.0 | 4.0 | 0.00 | 0.04 | 0.02 | 75 | 1013.8 |
| 20260508014558 | 46 | 0 | 0.0 | 0.0 | 0.00 | 0.05 | 0.02 | 75 | 1013.7 |
| 20260508013058 | 47 | 0 | 0.0 | 0.0 | 0.00 | 0.05 | 0.02 | 74 | 1013.4 |
| 20260508011606 | 48 | 0 | 0.0 | 0.0 | 0.00 | 0.05 | 0.02 | 71 | 1013.2 |
| 20260508010100 | 50 | 0 | 0.0 | 0.0 | 0.00 | 0.05 | 0.02 | 65 | 1013.0 |
| 20260508004558 | 52 | 0 | 0.0 | 0.0 | 0.00 | 0.06 | 0.02 | 61 | 1012.9 |
| 20260508003058 | 54 | 0 | 0.0 | 2.0 | 0.00 | 0.06 | 0.02 | 54 | 1012.7 |
| 20260508001600 | 55 | 0 | 1.0 | 6.0 | 0.00 | 0.06 | 0.02 | 51 | 1012.5 |
| 20260508000120 | 56 | 236 | 0.0 | 10.0 | 0.00 | 0.06 | 0.02 | 50 | 1012.2 |
| 20260507234557 | 58 | 248 | 4.0 | 11.0 | 0.00 | 0.06 | 0.02 | 45 | 1012.1 |
| 20260507233056 | 59 | 185 | 4.0 | 11.0 | 0.00 | 0.06 | 0.02 | 45 | 1012.1 |
| 20260507231614 | 60 | 109 | 3.0 | 8.0 | 0.00 | 0.06 | 0.02 | 45 | 1011.9 |
| 20260507230056 | 60 | 196 | 3.0 | 9.0 | 0.00 | 0.06 | 0.02 | 45 | 1011.8 |
| 20260507224559 | 60 | 298 | 3.0 | 10.0 | 0.00 | 0.06 | 0.02 | 45 | 1011.7 |
| 20260507223100 | 62 | 344 | 2.0 | 10.0 | 0.00 | 0.06 | 0.02 | 45 | 1011.8 |
| 20260507221602 | 61 | 253 | 3.0 | 10.0 | 0.00 | 0.06 | 0.02 | 48 | 1011.6 |
| 20260507220056 | 61 | 288 | 6.0 | 14.0 | 0.00 | 0.06 | 0.02 | 44 | 1011.6 |
| 20260507214559 | 61 | 205 | 3.0 | 10.0 | 0.00 | 0.08 | 0.02 | 46 | 1011.3 |
| 20260507213058 | 59 | 240 | 4.0 | 13.0 | 0.00 | 0.08 | 0.02 | 47 | 1011.2 |
| 20260507211606 | 61 | 305 | 6.0 | 12.0 | 0.00 | 0.08 | 0.02 | 47 | 1011.0 |
| 20260507210100 | 61 | 294 | 4.0 | 15.0 | 0.00 | 0.08 | 0.02 | 48 | 1010.7 |
| 20260507204559 | 60 | 331 | 2.0 | 11.0 | 0.00 | 0.09 | 0.02 | 48 | 1010.7 |
| 20260507203059 | 61 | 225 | 3.0 | 10.0 | 0.00 | 0.09 | 0.02 | 47 | 1010.8 |
| 20260507201600 | 61 | 231 | 8.0 | 16.0 | 0.00 | 0.09 | 0.02 | 46 | 1010.8 |
| 20260507200058 | 61 | 248 | 5.0 | 12.0 | 0.00 | 0.09 | 0.02 | 52 | 1011.0 |
| 20260507194557 | 60 | 302 | 2.0 | 11.0 | 0.00 | 0.10 | 0.02 | 53 | 1011.2 |
| 20260507193101 | 61 | 352 | 3.0 | 10.0 | 0.00 | 0.10 | 0.02 | 51 | 1011.5 |
| 20260507191559 | 60 | 313 | 2.0 | 7.0 | 0.00 | 0.10 | 0.02 | 54 | 1011.5 |
| 20260507190059 | 61 | 316 | 7.0 | 14.0 | 0.00 | 0.10 | 0.02 | 52 | 1011.7 |
| 20260507184558 | 62 | 210 | 3.0 | 12.0 | 0.00 | 0.10 | 0.02 | 51 | 1011.6 |
| 20260507183100 | 61 | 352 | 1.0 | 9.0 | 0.00 | 0.10 | 0.02 | 53 | 1011.7 |
| 20260507181557 | 60 | 223 | 4.0 | 9.0 | 0.00 | 0.10 | 0.02 | 59 | 1011.8 |
| 20260507180105 | 59 | 307 | 4.0 | 9.0 | 0.00 | 0.10 | 0.02 | 59 | 1011.9 |
| 20260507174630 | 59 | 242 | 2.0 | 12.0 | 0.00 | 0.11 | 0.02 | 57 | 1012.2 |
| 20260507173058 | 59 | 94 | 2.0 | 8.0 | 0.00 | 0.11 | 0.02 | 54 | 1012.1 |
| 20260507171618 | 57 | 238 | 3.0 | 6.0 | 0.00 | 0.11 | 0.02 | 61 | 1012.3 |
| 20260507170058 | 58 | 277 | 3.0 | 15.0 | 0.00 | 0.11 | 0.02 | 57 | 1012.4 |
| 20260507164601 | 58 | 108 | 1.0 | 5.0 | 0.00 | 0.12 | 0.02 | 62 | 1012.6 |
| 20260507163059 | 56 | 99 | 0.0 | 7.0 | 0.00 | 0.12 | 0.02 | 62 | 1012.9 |
| 20260507161559 | 57 | 239 | 1.0 | 6.0 | 0.00 | 0.12 | 0.02 | 61 | 1013.0 |
| 20260507160117 | 56 | 92 | 2.0 | 10.0 | 0.00 | 0.12 | 0.02 | 60 | 1013.0 |
| 20260507154558 | 56 | 290 | 1.0 | 8.0 | 0.00 | 0.13 | 0.02 | 57 | 1013.3 |
| 20260507153058 | 56 | 275 | 1.0 | 5.0 | 0.00 | 0.13 | 0.02 | 60 | 1013.3 |
| 20260507151600 | 54 | 243 | 0.0 | 3.0 | 0.00 | 0.13 | 0.02 | 63 | 1013.4 |
| 20260507144559 | 53 | 0 | 0.0 | 6.0 | 0.00 | 0.14 | 0.02 | 68 | 1013.5 |
| 20260507143108 | 53 | 289 | 2.0 | 6.0 | 0.00 | 0.14 | 0.02 | 67 | 1013.7 |
| 20260507141626 | 52 | 324 | 2.0 | 5.0 | 0.00 | 0.14 | 0.02 | 75 | 1014.0 |
| 20260507140112 | 52 | 0 | 0.0 | 2.0 | 0.00 | 0.14 | 0.02 | 81 | 1014.1 |
| 20260507134600 | 51 | 229 | 1.0 | 5.0 | 0.00 | 0.14 | 0.02 | 81 | 1014.1 |
| 20260507133105 | 51 | 265 | 1.0 | 3.0 | 0.00 | 0.14 | 0.02 | 84 | 1014.1 |
| 20260507131620 | 50 | 0 | 0.0 | 1.0 | 0.00 | 0.14 | 0.02 | 85 | 1014.2 |
| 20260507130107 | 50 | 0 | 0.0 | 0.0 | 0.00 | 0.14 | 0.02 | 87 | 1014.3 |
| 20260507124603 | 49 | 0 | 0.0 | 3.0 | 0.00 | 0.15 | 0.02 | 90 | 1014.2 |
| 20260507123105 | 49 | 0 | 0.0 | 0.0 | 0.00 | 0.15 | 0.02 | 93 | 1014.3 |
| 20260507121601 | 49 | 0 | 0.0 | 0.0 | 0.00 | 0.15 | 0.02 | 94 | 1014.2 |
| 20260507120057 | 49 | 0 | 0.0 | 0.0 | 0.00 | 0.15 | 0.02 | 95 | 1014.3 |
| 20260507114557 | 49 | 0 | 0.0 | 0.0 | 0.00 | 0.16 | 0.02 | 95 | 1014.2 |
| 20260507113128 | 49 | 0 | 0.0 | 0.0 | 0.00 | 0.16 | 0.02 | 96 | 1014.0 |
| 20260507111559 | 48 | 0 | 0.0 | 0.0 | 0.00 | 0.16 | 0.02 | 96 | 1013.8 |
| 20260507110103 | 48 | 0 | 0.0 | 0.0 | 0.00 | 0.16 | 0.02 | 96 | 1013.6 |
| 20260507104609 | 49 | 0 | 0.0 | 0.0 | 0.00 | 0.30 | 0.02 | 96 | 1013.4 |
| 20260507103059 | 48 | 0 | 0.0 | 0.0 | 0.00 | 0.30 | 0.02 | 96 | 1013.3 |
| 20260507101558 | 49 | 0 | 0.0 | 0.0 | 0.00 | 0.30 | 0.02 | 96 | 1013.4 |
| 20260507100100 | 48 | 0 | 0.0 | 0.0 | 0.00 | 0.30 | 0.02 | 96 | 1013.4 |
| 20260507094615 | 48 | 0 | 0.0 | 0.0 | 0.00 | 0.46 | 0.02 | 96 | 1013.3 |
| 20260507093057 | 48 | 0 | 0.0 | 0.0 | 0.00 | 0.46 | 0.02 | 96 | 1013.2 |
| 20260507091555 | 48 | 0 | 0.0 | 0.0 | 0.00 | 0.46 | 0.02 | 95 | 1013.2 |
| 20260507090056 | 49 | 0 | 0.0 | 0.0 | 0.00 | 0.46 | 0.02 | 96 | 1013.1 |
| 20260507084601 | 49 | 0 | 0.0 | 0.0 | 0.00 | 0.52 | 0.02 | 96 | 1013.1 |
| 20260507083056 | 49 | 0 | 0.0 | 0.0 | 0.00 | 0.52 | 0.02 | 96 | 1013.3 |
| 20260507081556 | 49 | 0 | 0.0 | 0.0 | 0.00 | 0.52 | 0.02 | 95 | 1013.3 |
| 20260507074558 | 49 | 0 | 0.0 | 0.0 | 0.00 | 0.52 | 0.02 | 95 | 1013.2 |
| 20260507073059 | 49 | 0 | 0.0 | 0.0 | 0.00 | 0.52 | 0.02 | 95 | 1013.3 |
| 20260507071557 | 49 | 0 | 0.0 | 0.0 | 0.00 | 0.52 | 0.02 | 95 | 1013.2 |
| 20260507070109 | 49 | 0 | 0.0 | 0.0 | 0.00 | 0.52 | 0.02 | 94 | 1013.2 |
| 20260507064604 | 49 | 0 | 0.0 | 0.0 | 0.00 | 0.52 | 0.02 | 93 | 1013.3 |